Location: Bratislava
(48.1500°N, 17.1170°E)
Time: 01:59:02
(UTC+01:00)

N. Korean satellite - Pass Details

Date: 31 January 2019
Orbit: 457 x 510 km, 97.2° (Epoch: 18 February)

Event Time Altitude Azimuth Distance (km) Brightness Sun altitude
Rises 06:00:23 0° 15° (NNE) 2,599 10.3 -13.7°
Reaches altitude 10° 06:02:31 10° 19° (NNE) 1,702 9.4 -13.3°
Maximum altitude 06:06:09 63° 100° (E) 551 7.1 -12.7°
Drops below altitude 10° 06:09:41 10° 183° (S) 1,656 9.4 -12.1°
Sets 06:11:44 0° 187° (S) 2,520 10.3 -11.8°
